Dallas Love, TX

9:16 AM CDT on June 25, 2018 (GMT -0500)
Dallas Love

Weather History for KDAL - November, 2017

Change the Weather History Date:

Wednesday, November 15, 2017

  Actual Average Record
Temperature  
Mean Temperature 70 °F -  
Max Temperature 73 °F 64 °F 84 °F (2016)
Min Temperature 66 °F 47 °F 33 °F (1997)
Cooling Degree Days 4    
Growing Degree Days 20 (Base 50)    
Moisture  
Dew Point 62 °F    
Average Humidity 77    
Maximum Humidity 83    
Minimum Humidity 68    
Precipitation  
Precipitation 0.00 in - - ()
Sea Level Pressure  
Sea Level Pressure 30.00 in    
Wind  
Wind Speed 11 mph (SSE)    
Max Wind Speed 17 mph    
Max Gust Speed 22 mph    
Visibility 9 miles    
Events Rain    
Averages and records for this station are not official NWS values.
T = Trace of Precipitation, MM = Missing Value Source: NWS Daily Summary

Daily Weather History Graph

Daily Weather History Graph

Search for Another Location

Airport or City:

Astronomy

Nov. 15, 2017 Rise Set
Actual Time 6:57 AM CST 5:25 PM CST
Civil Twilight 6:31 AM CST 5:52 PM CST
Nautical Twilight 6:01 AM CST 6:21 PM CST
Astronomical Twilight 5:32 AM CST 6:51 PM CST
Moon 4:12 AM CST (11/15) 4:10 PM CST (11/15)
Length of Visible Light 11h 20m
Length of Day
10h 27m
Waning Crescent, 7% of the Moon is Illuminated
Nov 15
Waning Crescent
Nov 18
New
Nov 26
First Quarter
Dec 3
Full
Dec 10
Last Quarter

Hourly Weather History & Observations

Time (CST) Temp. Dew Point Humidity Pressure Visibility Wind Dir Wind Speed Gust Speed Precip Events Conditions
12:53 AM 70.0 °F 59.0 °F 68% 29.93 in 10.0 mi South 12.7 mph - N/A   Overcast
1:53 AM 70.0 °F 60.1 °F 71% 29.92 in 10.0 mi South 11.5 mph - N/A   Overcast
2:53 AM 70.0 °F 60.1 °F 71% 29.91 in 10.0 mi South 16.1 mph - N/A   Mostly Cloudy
3:53 AM 69.1 °F 61.0 °F 75% 29.91 in 10.0 mi South 15.0 mph - N/A   Overcast
4:27 AM 69.1 °F 61.0 °F 75% 29.93 in 10.0 mi South 17.3 mph - N/A   Overcast
4:53 AM 68.0 °F 61.0 °F 78% 29.91 in 10.0 mi South 15.0 mph - N/A   Overcast
5:48 AM 68.0 °F 62.6 °F 83% 29.93 in 9.0 mi South 13.8 mph - N/A   Overcast
5:53 AM 68.0 °F 62.1 °F 81% 29.91 in 9.0 mi South 12.7 mph - N/A   Overcast
6:09 AM 68.0 °F 62.1 °F 81% 29.94 in 9.0 mi South 15.0 mph - N/A   Overcast
6:53 AM 68.0 °F 62.1 °F 81% 29.94 in 9.0 mi South 13.8 mph - N/A   Overcast
7:33 AM 68.0 °F 62.1 °F 81% 29.98 in 8.0 mi South 10.4 mph - N/A   Overcast
7:53 AM 68.0 °F 62.1 °F 81% 29.98 in 8.0 mi South 11.5 mph - N/A   Overcast
8:53 AM 69.1 °F 62.1 °F 78% 30.00 in 8.0 mi South 11.5 mph - N/A   Overcast
9:22 AM 69.1 °F 62.1 °F 78% 30.02 in 9.0 mi SSE 12.7 mph - N/A   Overcast
9:53 AM 69.1 °F 63.0 °F 81% 30.00 in 9.0 mi South 10.4 mph - N/A   Overcast
10:53 AM 70.0 °F 63.0 °F 78% 30.02 in 10.0 mi South 9.2 mph - N/A   Overcast
11:01 AM 70.0 °F 63.0 °F 78% 30.03 in 10.0 mi South 10.4 mph - N/A   Overcast
11:53 AM 70.0 °F 64.0 °F 81% 30.01 in 8.0 mi South 10.4 mph - 0.00 in Rain Light Rain
12:53 PM 71.1 °F 64.0 °F 78% 30.00 in 8.0 mi South 5.8 mph - 0.00 in Rain Light Rain
1:53 PM 73.0 °F 64.0 °F 73% 29.99 in 9.0 mi SE 6.9 mph - 0.00 in   Overcast
2:53 PM 73.9 °F 64.0 °F 71% 29.99 in 10.0 mi SE 6.9 mph - N/A   Mostly Cloudy
3:53 PM 73.9 °F 63.0 °F 68% 30.00 in 10.0 mi Calm Calm - N/A   Mostly Cloudy
4:53 PM 73.0 °F 63.0 °F 71% 30.01 in 10.0 mi Calm Calm - N/A   Mostly Cloudy
5:53 PM 72.0 °F 63.0 °F 73% 30.02 in 10.0 mi ENE 3.5 mph - N/A   Mostly Cloudy
6:53 PM 70.0 °F 64.0 °F 81% 30.04 in 10.0 mi ESE 5.8 mph - N/A   Mostly Cloudy
7:31 PM 70.0 °F 64.0 °F 81% 30.06 in 10.0 mi Calm Calm - N/A   Overcast
7:46 PM 68.0 °F 62.1 °F 81% 30.07 in 10.0 mi NE 15.0 mph 20.7 mph N/A   Overcast
7:53 PM 68.0 °F 62.1 °F 81% 30.06 in 10.0 mi NE 9.2 mph - N/A   Overcast
8:53 PM 66.9 °F 61.0 °F 81% 30.08 in 10.0 mi ENE 9.2 mph - 0.00 in Rain Light Rain
9:41 PM 66.0 °F 60.1 °F 81% 30.09 in 10.0 mi ENE 11.5 mph 21.9 mph 0.00 in   Overcast
9:53 PM 66.0 °F 60.1 °F 81% 30.08 in 10.0 mi NE 11.5 mph - 0.00 in   Overcast
10:53 PM 66.0 °F 59.0 °F 78% 30.09 in 9.0 mi NE 12.7 mph - N/A   Overcast
11:53 PM 66.0 °F 57.9 °F 75% 30.10 in 9.0 mi NNE 6.9 mph - N/A   Overcast